When you browse on this site, cookies collect data to enhance your experience and personalize the content and advertising you see.
Visit our Privacy Policy to learn more. By continuing to use the site, you agree to this use of cookies and data.
  • In France
  • List of Countries
  • For 7 days
  • Water Temperature
  • Satellite Maps
  • Weather Map
  • Weather Widgets
  • user-avatar
    Login

    Hourly Weather A'ali

    Today, 16 January, Wednesday

    Time Temperature Precipitation Wind Pressure Humidity
    00:00 +23°C° 0 mm 5 mps 761 mmHg 68%
    01:00 +23°C° 0 mm 5 mps 761 mmHg 69%
    02:00 +23°C° 0 mm 5 mps 761 mmHg 70%
    03:00 +22°C° 0 mm 5 mps 761 mmHg 75%
    04:00 +22°C° 0 mm 5 mps 761 mmHg 76%
    05:00 +22°C° 0 mm 5 mps 761 mmHg 76%
    06:00 +22°C° 0 mm 4 mps 761 mmHg 77%
    07:00 +23°C° 0 mm 4 mps 761 mmHg 74%
    08:00 +25°C° 0 mm 4 mps 761 mmHg 70%
    09:00 +25°C° 0 mm 5 mps 761 mmHg 63%
    10:00 +26°C° 0 mm 4 mps 761 mmHg 58%
    11:00 +27°C° 0 mm 4 mps 761 mmHg 53%
    12:00 +27°C° 0 mm 4 mps 760 mmHg 48%
    13:00 +28°C° 0 mm 4 mps 760 mmHg 46%
    14:00 +28°C° 0 mm 3 mps 759 mmHg 43%
    15:00 +28°C° 0 mm 3 mps 759 mmHg 40%
    16:00 +28°C° 0 mm 4 mps 759 mmHg 42%
    17:00 +27°C° 0 mm 4 mps 759 mmHg 44%
    18:00 +27°C° 0 mm 4 mps 759 mmHg 45%
    19:00 +26°C° 0 mm 5 mps 759 mmHg 49%
    20:00 +26°C° 0 mm 6 mps 759 mmHg 53%
    21:00 +24°C° 0 mm 6 mps 759 mmHg 57%
    22:00 +24°C° 0 mm 7 mps 758 mmHg 60%
    23:00 +24°C° 0 mm 7 mps 758 mmHg 63%

    Tomorrow, 17 January, Thursday

    Time Temperature Precipitation Wind Pressure Humidity
    00:00 +23°C° 0 mm 7 mps 758 mmHg 66%
    01:00 +23°C° 0 mm 8 mps 757 mmHg 69%
    02:00 +23°C° 0 mm 8 mps 757 mmHg 72%
    03:00 +23°C° 0 mm 8 mps 757 mmHg 74%
    04:00 +23°C° 0 mm 8 mps 757 mmHg 74%
    05:00 +23°C° 0 mm 8 mps 757 mmHg 74%
    06:00 +23°C° 0 mm 8 mps 757 mmHg 73%
    07:00 +24°C° 0 mm 8 mps 757 mmHg 66%
    08:00 +24°C° 0 mm 7 mps 758 mmHg 58%
    09:00 +24°C° 0 mm 7 mps 758 mmHg 50%
    10:00 +27°C° 0 mm 8 mps 758 mmHg 44%
    11:00 +28°C° 0 mm 9 mps 759 mmHg 38%
    12:00 +29°C° 0 mm 9 mps 759 mmHg 32%
    13:00 +28°C° 0 mm 10 mps 759 mmHg 31%
    14:00 +26°C° 0 mm 12 mps 759 mmHg 30%
    15:00 +23°C° 0 mm 13 mps 760 mmHg 29%
    16:00 +23°C° 0 mm 12 mps 760 mmHg 31%
    17:00 +22°C° 0 mm 11 mps 761 mmHg 32%
    18:00 +22°C° 0 mm 11 mps 762 mmHg 34%
    19:00 +21°C° 0 mm 10 mps 762 mmHg 34%
    20:00 +19°C° 0 mm 10 mps 763 mmHg 34%
    21:00 +19°C° 0 mm 9 mps 763 mmHg 35%
    22:00 +18°C° 0 mm 9 mps 763 mmHg 36%
    23:00 +18°C° 0 mm 9 mps 763 mmHg 37%

    Day after tomorrow, 18 January, Friday

    Time Temperature Precipitation Wind Pressure Humidity
    00:00 +18°C° 0 mm 8 mps 763 mmHg 37%
    01:00 +17°C° 0 mm 9 mps 763 mmHg 38%
    02:00 +17°C° 0 mm 9 mps 763 mmHg 39%
    03:00 +17°C° 0 mm 9 mps 763 mmHg 40%
    04:00 +17°C° 0 mm 9 mps 763 mmHg 42%
    05:00 +17°C° 0 mm 9 mps 763 mmHg 43%
    06:00 +16°C° 0 mm 8 mps 763 mmHg 44%
    07:00 +17°C° 0 mm 8 mps 764 mmHg 44%
    08:00 +17°C° 0 mm 8 mps 764 mmHg 45%
    09:00 +18°C° 0 mm 8 mps 765 mmHg 45%
    10:00 +18°C° 0 mm 8 mps 764 mmHg 44%
    11:00 +20°C° 0 mm 7 mps 764 mmHg 43%
    12:00 +20°C° 0 mm 7 mps 764 mmHg 41%
    13:00 +20°C° 0 mm 7 mps 763 mmHg 41%
    14:00 +20°C° 0 mm 7 mps 763 mmHg 41%
    15:00 +20°C° 0 mm 7 mps 763 mmHg 41%
    16:00 +20°C° 0 mm 7 mps 763 mmHg 43%
    17:00 +18°C° 0 mm 7 mps 763 mmHg 45%
    18:00 +18°C° 0 mm 7 mps 763 mmHg 47%
    19:00 +18°C° 0 mm 7 mps 764 mmHg 48%
    20:00 +18°C° 0 mm 7 mps 764 mmHg 49%
    21:00 +17°C° 0 mm 7 mps 764 mmHg 49%
    22:00 +17°C° 0 mm 7 mps 764 mmHg 49%
    23:00 +17°C° 0 mm 7 mps 764 mmHg 48%

    19 January, Saturday

    Time Temperature Precipitation Wind Pressure Humidity
    00:00 +17°C° 0 mm 7 mps 764 mmHg 48%
    01:00 +17°C° 0 mm 7 mps 763 mmHg 48%
    02:00 +17°C° 0 mm 8 mps 763 mmHg 48%
    03:00 +17°C° 0 mm 8 mps 763 mmHg 48%
    04:00 +17°C° 0 mm 8 mps 763 mmHg 49%
    05:00 +17°C° 0 mm 8 mps 763 mmHg 50%
    06:00 +17°C° 0 mm 8 mps 764 mmHg 51%
    07:00 +17°C° 0 mm 8 mps 764 mmHg 49%
    08:00 +18°C° 0 mm 8 mps 764 mmHg 48%
    09:00 +18°C° 0 mm 8 mps 765 mmHg 47%
    10:00 +18°C° 0 mm 8 mps 765 mmHg 46%
    11:00 +20°C° 0 mm 8 mps 764 mmHg 45%
    12:00 +20°C° 0 mm 8 mps 764 mmHg 44%
    13:00 +19°C° 0 mm 9 mps 764 mmHg 44%
    14:00 +18°C° 0 mm 9 mps 763 mmHg 45%
    15:00 +18°C° 0 mm 9 mps 763 mmHg 45%
    16:00 +18°C° 0 mm 9 mps 763 mmHg 48%
    17:00 +17°C° 0 mm 9 mps 764 mmHg 50%
    18:00 +17°C° 0 mm 9 mps 764 mmHg 52%
    19:00 +17°C° 0 mm 9 mps 764 mmHg 52%
    20:00 +16°C° 0 mm 9 mps 765 mmHg 52%
    21:00 +16°C° 0 mm 9 mps 765 mmHg 52%
    22:00 +16°C° 0 mm 9 mps 765 mmHg 52%
    23:00 +16°C° 0 mm 9 mps 765 mmHg 51%

    20 January, Sunday

    Time Temperature Precipitation Wind Pressure Humidity
    00:00 +16°C° 0 mm 9 mps 765 mmHg 50%
    01:00 +16°C° 0 mm 9 mps 765 mmHg 50%
    02:00 +16°C° 0 mm 9 mps 764 mmHg 49%
    03:00 +15°C° 0 mm 9 mps 764 mmHg 49%
    04:00 +15°C° 0 mm 9 mps 765 mmHg 51%
    05:00 +15°C° 0 mm 9 mps 765 mmHg 53%
    06:00 +15°C° 0 mm 9 mps 765 mmHg 56%
    07:00 +16°C° 0 mm 9 mps 766 mmHg 54%
    08:00 +16°C° 0 mm 8 mps 766 mmHg 52%
    09:00 +17°C° 0 mm 8 mps 767 mmHg 50%
    10:00 +17°C° 0 mm 8 mps 766 mmHg 48%
    11:00 +18°C° 0 mm 8 mps 766 mmHg 45%
    12:00 +18°C° 0 mm 8 mps 765 mmHg 43%
    13:00 +18°C° 0 mm 8 mps 765 mmHg 42%
    14:00 +18°C° 0 mm 8 mps 765 mmHg 42%
    15:00 +18°C° 0 mm 8 mps 764 mmHg 42%
    16:00 +18°C° 0 mm 8 mps 764 mmHg 44%
    17:00 +17°C° 0 mm 8 mps 765 mmHg 47%
    18:00 +17°C° 0 mm 8 mps 765 mmHg 49%
    19:00 +17°C° 0 mm 8 mps 765 mmHg 49%
    20:00 +16°C° 0 mm 8 mps 765 mmHg 49%
    21:00 +16°C° 0 mm 7 mps 765 mmHg 49%
    22:00 +16°C° 0 mm 7 mps 765 mmHg 49%
    23:00 +16°C° 0 mm 8 mps 765 mmHg 48%

    21 January, Monday

    Time Temperature Precipitation Wind Pressure Humidity
    00:00 +16°C° 0 mm 8 mps 765 mmHg 48%
    01:00 +16°C° 0 mm 8 mps 765 mmHg 48%
    02:00 +15°C° 0 mm 8 mps 765 mmHg 48%
    03:00 +15°C° 0 mm 8 mps 764 mmHg 48%
    04:00 +15°C° 0 mm 8 mps 764 mmHg 49%
    05:00 +15°C° 0 mm 8 mps 765 mmHg 50%
    06:00 +15°C° 0 mm 7 mps 765 mmHg 52%
    07:00 +16°C° 0 mm 7 mps 765 mmHg 50%
    08:00 +16°C° 0 mm 7 mps 765 mmHg 49%
    09:00 +17°C° 0 mm 7 mps 765 mmHg 48%
    10:00 +17°C° 0 mm 7 mps 765 mmHg 45%
    11:00 +18°C° 0 mm 7 mps 764 mmHg 43%
    12:00 +18°C° 0 mm 7 mps 764 mmHg 40%
    13:00 +20°C° 0 mm 6 mps 763 mmHg 38%
    14:00 +20°C° 0 mm 6 mps 763 mmHg 36%
    15:00 +20°C° 0 mm 6 mps 762 mmHg 34%
    16:00 +20°C° 0 mm 6 mps 762 mmHg 36%
    17:00 +20°C° 0 mm 5 mps 763 mmHg 38%
    18:00 +19°C° 0 mm 5 mps 763 mmHg 41%
    19:00 +19°C° 0 mm 5 mps 763 mmHg 42%
    20:00 +19°C° 0 mm 5 mps 763 mmHg 43%
    21:00 +17°C° 0 mm 5 mps 763 mmHg 44%
    22:00 +17°C° 0 mm 5 mps 763 mmHg 45%
    23:00 +17°C° 0 mm 5 mps 763 mmHg 46%
    Show more